Weather History for KFFO - November, 2014

Change the Weather History Date:

Friday, November 7, 2014

  Actual Average Record
Temperature  
Mean Temperature 39 °F -  
Max Temperature 45 °F 53 °F 73 °F (1996)
Min Temperature 33 °F 35 °F 22 °F (2010)
Degree Days  
Heating Degree Days 26    
Moisture  
Dew Point 30 °F    
Average Humidity 71    
Maximum Humidity 87    
Minimum Humidity 45    
Precipitation  
Precipitation 0.00 in - - ()
Sea Level Pressure  
Sea Level Pressure 30.11 in    
Wind  
Wind Speed 11 mph (NW)    
Max Wind Speed 18 mph    
Max Gust Speed 29 mph    
Visibility 10 miles    
Events      
Averages and records for this station are not official NWS values.
T = Trace of Precipitation, MM = Missing Value Source: NWS Daily Summary

Daily Weather History Graph

Daily Weather History Graph

Search for Another Location

Airport or City:

Trip Planner

Search our weather history database for the weather conditions in past years. The results will help you decide how hot, cold, wet, or windy it might be!

Date:

Astronomy

Nov. 07, 2014 Rise Set
Actual Time 7:11 AM EST 5:27 PM EST
Civil Twilight 6:43 AM EST 5:55 PM EST
Nautical Twilight 6:11 AM EST 6:28 PM EST
Astronomical Twilight 5:39 AM EST 6:59 PM EST
Moon 6:19 PM EST (11/7) 7:46 AM EST (11/7)
Length of Visible Light 11h 12m
Length of Day
10h 15m
Full, 99% of the Moon is Illuminated
Nov 7
Full
Nov 14
Last Quarter
Nov 22
New
Nov 29
First Quarter
Dec 6
Full

Hourly Weather History & Observations

Time (EST) Temp. Windchill Dew Point Humidity Pressure Visibility Wind Dir Wind Speed Gust Speed Precip Events Conditions
12:58 AM 40.6 °F 31.7 °F 36.0 °F 83% 30.04 in 10.0 mi NW 18.4 mph 28.8 mph N/A   Overcast
1:58 AM 40.5 °F 33.2 °F 35.2 °F 82% 30.07 in 10.0 mi NNW 12.7 mph 23.0 mph N/A   Overcast
2:08 AM 41.0 °F 34.7 °F 35.6 °F 81% 30.05 in 10.0 mi NW 10.4 mph 20.7 mph N/A   Overcast
2:28 AM 41.0 °F 33.1 °F 35.6 °F 81% 30.07 in 10.0 mi NW 15.0 mph 25.3 mph N/A   Overcast
2:38 AM 41.0 °F 33.9 °F 33.8 °F 76% 30.07 in 10.0 mi NW 12.7 mph - N/A   Overcast
2:58 AM 40.1 °F 32.0 °F 34.2 °F 79% 30.09 in 10.0 mi NNW 15.0 mph 25.3 mph N/A   Overcast
3:18 AM 39.2 °F 31.6 °F 33.8 °F 81% 30.08 in 10.0 mi NW 12.7 mph 18.4 mph N/A   Overcast
3:28 AM 39.2 °F 31.6 °F 33.8 °F 81% 30.08 in 10.0 mi NW 12.7 mph - N/A   Overcast
3:48 AM 39.2 °F 31.2 °F 35.6 °F 87% 30.09 in 10.0 mi NW 13.8 mph - N/A   Drizzle
3:58 AM 39.0 °F 31.4 °F 35.4 °F 87% 30.12 in 10.0 mi NW 12.7 mph 19.6 mph 0.00 in   Light Drizzle
4:18 AM 39.2 °F 30.5 °F 35.6 °F 87% 30.10 in 10.0 mi NW 16.1 mph - N/A   Overcast
4:58 AM 38.7 °F 30.9 °F 32.5 °F 79% 30.12 in 10.0 mi NW 12.7 mph - 0.00 in   Overcast
5:58 AM 38.5 °F 32.7 °F 31.3 °F 75% 30.14 in 10.0 mi NW 8.1 mph - N/A   Overcast
6:18 AM 37.4 °F 28.5 °F 32.0 °F 81% 30.12 in 10.0 mi WNW 15.0 mph 23.0 mph N/A   Overcast
6:58 AM 36.3 °F 28.0 °F 29.7 °F 77% 30.16 in 10.0 mi NW 12.7 mph - N/A   Overcast
7:08 AM 35.6 °F 27.5 °F 28.4 °F 75% 30.13 in 10.0 mi NW 11.5 mph - N/A   Mostly Cloudy
7:28 AM 35.6 °F 28.0 °F 28.4 °F 75% 30.14 in 10.0 mi NW 10.4 mph - N/A   Mostly Cloudy
7:58 AM 35.6 °F 28.0 °F 29.1 °F 77% 30.18 in 10.0 mi NW 10.4 mph - N/A   Mostly Cloudy
8:58 AM 36.5 °F 31.0 °F 28.6 °F 73% 30.19 in 10.0 mi NW 6.9 mph - N/A   Overcast
9:38 AM 37.4 °F 32.1 °F 28.4 °F 70% 30.17 in 10.0 mi NNW 6.9 mph - N/A   Scattered Clouds
9:58 AM 37.9 °F 33.5 °F 29.3 °F 71% 30.21 in 10.0 mi NW 5.8 mph - N/A   Clear
10:58 AM 40.8 °F 36.9 °F 27.1 °F 58% 30.21 in 10.0 mi NNW 5.8 mph - N/A   Clear
11:58 AM 42.8 °F 37.0 °F 26.2 °F 52% 30.19 in 10.0 mi NW 10.4 mph - N/A   Partly Cloudy
12:58 PM 43.5 °F 37.1 °F 25.2 °F 48% 30.14 in 10.0 mi NNW 12.7 mph - N/A   Mostly Cloudy
1:58 PM 43.7 °F 40.3 °F 25.2 °F 48% 30.12 in 10.0 mi West 5.8 mph - N/A   Partly Cloudy
2:58 PM 45.9 °F 44.6 °F 25.5 °F 45% 30.11 in 10.0 mi Variable 3.5 mph - N/A   Mostly Cloudy
3:58 PM 44.1 °F 41.5 °F 24.3 °F 46% 30.09 in 10.0 mi West 4.6 mph - N/A   Partly Cloudy
4:58 PM 43.7 °F - 26.1 °F 50% 30.11 in 10.0 mi Calm Calm - N/A   Clear
5:58 PM 41.0 °F 39.0 °F 24.8 °F 53% 30.10 in 4.0 mi NE 3.5 mph - N/A   Haze
6:18 PM 41.0 °F 39.0 °F 26.6 °F 57% 30.06 in 10.0 mi ENE 3.5 mph - N/A   Clear
6:58 PM 39.6 °F 37.4 °F 26.4 °F 59% 30.08 in 10.0 mi ESE 3.5 mph - N/A   Clear
7:58 PM 35.2 °F - 27.9 °F 74% 30.09 in 10.0 mi South 2.3 mph - N/A   Clear
8:58 PM 33.8 °F 30.8 °F 26.6 °F 75% 30.09 in 3.0 mi Variable 3.5 mph - N/A   Haze
9:58 PM 33.1 °F - 28.2 °F 82% 30.08 in 10.0 mi Calm Calm - N/A   Mostly Cloudy
10:58 PM 34.3 °F 30.2 °F 26.4 °F 73% 30.06 in 10.0 mi SSE 4.6 mph - N/A   Clear
11:18 PM 33.8 °F 29.6 °F 26.6 °F 75% 30.02 in 8.0 mi SSE 4.6 mph - N/A   Clear
11:28 PM 33.8 °F 28.6 °F 26.6 °F 75% 30.01 in 9.0 mi SE 5.8 mph - N/A   Partly Cloudy
11:58 PM 33.8 °F 28.6 °F 26.8 °F 75% 30.03 in 10.0 mi SSE 5.8 mph - N/A   Partly Cloudy